NUSAT-5 (MARYAM) (43204 NORAD) Tracking and Keplerian Element Data

This shows tracking and keplerian element data for the satellite.

Feedback or suggestion? Click here.




ElementValue
Catalog43204
NameNUSAT-5 (MARYAM)
Epoch Orbit6636
Epoch Day106.84747429
Epoch Year2019
RAAN235.3615
Inclination97.3854
Eccentricity0.0018038
Argument of Perigee158.7283
Mean Anonmoly0.4142
Mean Motion15.23830804
Decay Rate1.734E-05
L11 43204U 18015K 19106.84747429 .00001734 00000-0 74610-4 0 9997
L22 43204 97.3854 235.3615 0018038 158.7283 0.4142 15.23830804 66366

Live tracking and technical data element details for NUSAT-5 (MARYAM) (NORAD 43204). NUSAT-5 (MARYAM) can be tracked NOW for your location showing map with azimuth and elevation plus other details from your city location.

Track the satellite on the map from your city or location and see movement details for azimuth, elevation, latitude, longitude, range, height, and movement on the map or in text.







IsCatalogInMostPopularTable: catalog: 43204, numindb: 218
Update: records affected: 1



GetName: 43204 NUSAT-5 (MARYAM)

Hit Count: updated at: Sat, 20 Apr 2019 00:53:13 GMT